AirNav   Pilot Hours Calculator
 
 1121 users online  

KRBM Robinson Army Airfield / National Guard Airport
Camp Robinson/Little Rock, Arkansas, USA

GOING TO CAMP ROBINSON/LITTLE ROCK?


FAA INFORMATION EFFECTIVE 14 JULY 2022

Location

FAA Identifier: RBM
Lat/Long: 34-50-48.9250N 092-18-00.5100W
34-50.815417N 092-18.008500W
34.8469236,-92.3001417
(estimated)
Elevation: 598 ft. / 182 m (estimated)
Variation: 04E (1985)
From city: 5 miles NW of central business district of the associated city
Time zone: UTC -5 (UTC -6 during Standard Time)
Zip code: 72118

Airport Operations

Airport use: Private use. Permission required prior to landing
Control tower: no
ARTCC: MEMPHIS CENTER
FSS: JONESBORO FLIGHT SERVICE STATION
Attendance: 
Pattern altitude: 1600 FT FIXED WING, 1300 FT ROTARY WING.
Segmented circle: no
Lights: MIRL & PAPI PCL 126.2

Airport Communications

CTAF: 123.075
WX AWOS-3PT at ORK (2.4 nm E): 123.775 (501-906-6529)
WX ASOS at LIT (8 nm SE): PHONE 501-376-0247
WX AWOS-2 at CXW (16 nm NW): 118.775 (501-358-6209)
WX AWOS-3 at SUZ (18 nm SW): 132.125 (501-847-3883)

Nearby radio navigation aids

VOR radial/distance  VOR name  Freq  Var
LITr325/11.7LITTLE ROCK VORTAC113.9005E

 
NDB name  Hdg/Dist  Freq  Var  ID
LASKY001/10.735300ELI .-.. ..

Airport Services

Fuel available: 100 J8

Runway Information

Runway 4/22

Dimensions: 5702 x 75 ft. / 1738 x 23 m
Surface: asphalt
Runway edge lights: medium intensity
RUNWAY 4  RUNWAY 22
Latitude: 34-50.449500N34-51.181333N
Longitude: 092-18.366333W092-17.650667W
Elevation: 598.0 ft.561.0 ft.
Traffic pattern: leftright
Displaced threshold: 695 ft.no
Visual slope indicator: 4-light PAPI on left4-light PAPI on left

Airport Ownership and Management from official FAA records

Ownership: U.S. Army
Owner: US ARMY AERONAUTICAL SVCS AGENCY
FT BELVOIR, VA 22060

Additional Remarks

PPR CALL DSN 962-5666; C501-212-5666; FAX DSN 962-5669 C501-212-5669. CTC ROBINSON OPS INBOUND.
REMARKS: OPR 1300-2300Z++ MON AND FRI; 1300-0500Z++ TUE-THU;1400-2100Z++ WKEND. CLSD ON FEDERAL HOL & ASSOCIATED WKEND; OCNLY CLSD OTHER WKEND.
UNLGTD TWR 738 FT MSL/153 FT AGL 5700 FT SW OF RY 04 THLD.
CAUTION: HIGH VOLUME OF RWY TRFC.
CAUTION: R2403A AND R2403B LCTD N OF RWY.
CTC ARPT OPS 41.5/126.2/241.0.
FOR CD CTC LITTLE ROCK APCH 501-379-2908 OR LITTLE ROCK ATCT 501-379-2911.

Instrument Procedures

There are no published instrument procedures at KRBM.

Some nearby airports with instrument procedures:

KORK - North Little Rock Municipal Airport (2 nm E)
KLIT - Bill and Hillary Clinton National Airport/Adams Field (8 nm SE)
KLRF - Little Rock Air Force Base (9 nm NE)
KCXW - Conway Regional Airport (16 nm NW)
KSUZ - Saline County Regional Airport (18 nm SW)
 
Loc | Ops | Rwys | IFR | FBO | Links
Com | Nav | Svcs | Stats | Notes
Area around KRBM (Robinson Army Airfield / National Guard Airport)
 
Road maps at: MapQuest Bing Google
 
Aerial photo
WARNING: Photo may not be current or correct
Aerial photo of KRBM (Robinson Army Airfield / National Guard Airport)
Do you have a better or more recent aerial photo of Robinson Army Airfield / National Guard Airport that you would like to share? If so, please send us your photo.

 
Sectional chart

 
Airport distance calculator
Flying to Robinson Army Airfield / National Guard Airport? Find the distance to fly.

From to KRBM

Sunrise and sunset
Times for 07-Aug-2022
 Local
(UTC-5)
 Zulu
(UTC)
Morning civil twilight05:5710:57
Sunrise06:2411:24
Sunset20:0501:05
Evening civil twilight20:3301:33

Current date and time
Zulu (UTC)  07-Aug-2022 21:43:54
Local (UTC-5)  07-Aug-2022 16:43:54
 
METAR
KLIT 
8nm SE 
072053Z 19010KT 10SM SCT055 BKN250 34/21 A3006 RMK AO2 SLP179 T03440211 58026
KLRF 
8nm NE 
072056Z 19007KT 10SM CLR 35/24 A3004 RMK AO2A SLP172 T03450240 57025 $
KCXW 
16nm NW 
072055Z AUTO 19009G15KT 7SM FEW065 35/21 A3003 RMK A01
KSUZ 
18nm SW 
072115Z AUTO 18011G16KT 9SM FEW055 35/21 A3005 RMK A01
TAF
KLIT 
8nm SE 
071720Z 0718/0818 18009KT P6SM SCT040 FM081200 22008KT P6SM OVC100
KLRF 
8nm NE 
071503Z 0715/0821 VRB06KT 9999 SCT045 QNH3004INS BECMG 0818/0819 27006KT 9999 SCT050 BKN100 QNH3001INS TEMPO 0820/0821 30012G20KT 9000 -TSRA FEW050CB FEW150 SCT310 TX34/0717Z TN23/0811Z
NOTAMs
Click for the latest NOTAMs
NOTAMs are issued by the DoD/FAA and will open in a separate window not controlled by AirNav.

 

 
 

Would you like to see your business listed on this page?

 If your business provides an interesting product or service to pilots, flight crews, aircraft, or users of the Robinson Army Airfield / National Guard Airport, you should consider listing it here.  To start the listing process, click on the button below
 
Add a business
 

Other Pages about Robinson Army Airfield / National Guard Airport

Update a link
 
Copyright © AirNav, LLC. All rights reserved. Privacy Policy  Contact